Weather History for 15420 - March, 2008

Change the Weather History Date:

Thursday, March 27, 2008

  Actual Average Record
Temperature  
Mean Temperature 42 °F -  
Max Temperature 62 °F 63 °F - ()
Min Temperature 23 °F 41 °F - ()
Degree Days  
Heating Degree Days 22    
Moisture  
Dew Point 23 °F    
Average Humidity 43    
Maximum Humidity 98    
Minimum Humidity 11    
Precipitation  
Precipitation 0.00 in 0.06 in - ()
Sea Level Pressure  
Sea Level Pressure 29.83 in    
Wind  
Wind Speed 4 mph ()    
Max Wind Speed 11 mph    
Max Gust Speed 20 mph    
Visibility 6.0 miles    
Events      
T = Trace of Precipitation, MM = Missing Value Source: Averaged Metar Reports

Daily Weather History Graph

Daily Weather History Graph

Search for Another Location

Airport or City:

Trip Planner

Search our weather history database for the weather conditions in past years. The results will help you decide how hot, cold, wet, or windy it might be!

Date:

Astronomy

Mar. 27, 2008 Rise Set
Actual Time 6:05 AM EET 6:37 PM EET
Civil Twilight 5:36 AM EET 7:06 PM EET
Nautical Twilight 5:01 AM EET 7:40 PM EET
Astronomical Twilight 4:26 AM EET 8:16 PM EET
Moon No Moon Rise 8:17 AM EET (3/27)
Length of Visible Light 13h 29m
Length of Day
12h 31m
Waning Gibbous, 73% of the Moon is Illuminated
Mar 27
Waning Gibbous
Mar 29
Last Quarter
Apr 6
New
Apr 12
First Quarter
Apr 20
Full

Hourly Weather History & Observations

Time (EET) Temp. Windchill Dew Point Humidity Pressure Visibility Wind Dir Wind Speed Gust Speed Precip Events Conditions
12:00 AM 31 °F - 17 °F 42% 29.82 in 6 mi Calm Calm - -   Mostly Cloudy
12:00 AM 35.6 °F - 21.2 °F 56% 29.83 in - Calm Calm - N/A   Clear
12:30 AM 37.4 °F - 23.0 °F 56% 29.83 in - Variable 2.2 mph - N/A   Clear
1:00 AM 31 °F - 22 °F 58% 29.82 in 6 mi SSW 2.2 mph - -   Mostly Cloudy
1:00 AM 37.4 °F 33.9 °F 21.2 °F 52% 29.83 in - Variable 4.5 mph - N/A   Clear
1:30 AM 37.4 °F 33.9 °F 21.2 °F 52% 29.83 in - Variable 4.5 mph - N/A   Clear
2:00 AM 29 °F - 22 °F 65% 29.84 in 6 mi Calm Calm - -  
2:00 AM 35.6 °F - 23.0 °F 60% 29.83 in - Variable 2.2 mph - N/A   Clear
2:30 AM 33.8 °F - 23.0 °F 65% 29.83 in - Calm Calm - N/A   Clear
3:00 AM 27 °F - 23 °F 78% 29.83 in 6 mi Calm Calm - -  
3:00 AM 33.8 °F - 21.2 °F 60% 29.83 in - Variable 2.2 mph - N/A   Clear
3:30 AM 37.4 °F - 19.4 °F 48% 29.83 in - Calm Calm - N/A   Clear
4:00 AM 26 °F - 24 °F 87% 29.83 in 6 mi Calm Calm - -  
4:00 AM 32.0 °F - 23.0 °F 69% 29.86 in - Variable 2.2 mph - N/A   Clear
4:30 AM 30.2 °F - 23.0 °F 75% 29.86 in - Variable 2.2 mph - N/A   Clear
5:00 AM 25 °F - 23 °F 88% 29.84 in 6 mi North 2.2 mph - -  
5:00 AM 30.2 °F - 23.0 °F 75% 29.86 in - Variable 2.2 mph - N/A   Clear
5:30 AM 28.4 °F - 23.0 °F 80% 29.86 in - Calm Calm - N/A   Clear
6:00 AM 24 °F - 23 °F 92% 29.86 in 6 mi Calm Calm - -  
6:00 AM 28.4 °F - 23.0 °F 80% 29.86 in - Variable 2.2 mph - N/A   Clear
6:30 AM 30.2 °F - 24.8 °F 80% 29.86 in - Variable 2.2 mph - N/A   Clear
7:00 AM 24 °F - 24 °F 98% 29.85 in 6 mi Calm Calm - -  
7:00 AM 32.0 °F 27.6 °F 24.8 °F 75% 29.86 in 5.0 mi Variable 4.5 mph - N/A   Clear
7:30 AM 35.6 °F - 24.8 °F 65% 29.86 in - Variable 2.2 mph - N/A   Clear
8:00 AM 33 °F - 24 °F 57% 29.86 in 6 mi NNE 4.5 mph - -  
8:00 AM 37.4 °F 33.9 °F 24.8 °F 60% 29.86 in - Variable 4.5 mph - N/A   Clear
8:30 AM 39.2 °F 36.0 °F 24.8 °F 56% 29.86 in - Variable 4.5 mph - N/A   Clear
9:00 AM 40 °F - 22 °F 35% 29.87 in 6 mi ENE 4.5 mph - -  
9:00 AM 41.0 °F 38.1 °F 23.0 °F 49% 29.86 in - Variable 4.5 mph - N/A   Clear
9:30 AM 42.8 °F 40.2 °F 24.8 °F 49% 29.86 in - Variable 4.5 mph - N/A   Clear
10:00 AM 46 °F - 21 °F 25% 29.86 in 6 mi East 4.5 mph - -  
10:00 AM 46.4 °F - 23.0 °F 40% 29.86 in - Variable 2.2 mph - N/A   Clear
10:30 AM 50.0 °F - 24.8 °F 37% 29.86 in - Variable 4.5 mph - N/A   Clear
11:00 AM 50 °F - 21 °F 20% 29.86 in 6 mi ESE 4.5 mph - -  
11:00 AM 51.8 °F - 21.2 °F 30% 29.86 in - Variable 4.5 mph - N/A   Clear
11:30 AM 53.6 °F - 23.0 °F 30% 29.86 in - Variable 4.5 mph - N/A   Clear
12:00 PM 55 °F - 20 °F 15% 29.83 in 6 mi SSE 4.5 mph - -  
12:00 PM 55.4 °F - 23.0 °F 29% 29.83 in - ESE 6.7 mph - N/A   Clear
12:30 PM 57.2 °F - 21.2 °F 25% 29.83 in - Variable 4.5 mph - N/A   Clear
1:00 PM 59 °F - 23 °F 14% 29.81 in 6 mi SE 4.5 mph - -   Clear
1:00 PM 59.0 °F - 21.2 °F 23% 29.83 in - SE 11.2 mph - N/A   Clear
2:00 PM 60 °F - 20 °F 11% 29.78 in 6 mi SSE 8.9 mph - -   Clear
2:00 PM 60.8 °F - 19.4 °F 20% 29.80 in - SSE 8.9 mph 20.1 mph N/A   Clear
2:30 PM 60.8 °F - 23.0 °F 23% 29.77 in - SE 6.7 mph - N/A   Clear
3:00 PM 61 °F - 20 °F 11% 29.77 in 6 mi SE 6.7 mph - -   Scattered Clouds
3:00 PM 60.8 °F - 21.2 °F 22% 29.80 in - SSE 6.7 mph - N/A   Clear
3:30 PM 60.8 °F - 23.0 °F 23% 29.77 in - SE 6.7 mph - N/A   Clear
4:00 PM 61 °F - 21 °F 11% 29.75 in 6 mi SE 6.7 mph - -   Scattered Clouds
4:00 PM 60.8 °F - 23.0 °F 23% 29.77 in - Variable 4.5 mph - N/A   Clear
5:00 PM 60.8 °F - 23.0 °F 23% 29.77 in - ESE 8.9 mph - N/A   Clear
5:30 PM 60.8 °F - 24.8 °F 25% 29.77 in - SE 8.9 mph - N/A   Clear
6:00 PM 60 °F - 21 °F 12% 29.75 in 6 mi ESE 6.7 mph - -   Clear
6:00 PM 59.0 °F - 23.0 °F 25% 29.77 in - SE 11.2 mph - N/A   Clear
6:30 PM 59.0 °F - 24.8 °F 27% 29.77 in - SE 8.9 mph - N/A   Clear
7:00 PM 56 °F - 20 °F 14% 29.77 in 6 mi SE 6.7 mph - -   Scattered Clouds
7:00 PM 57.2 °F - 24.8 °F 29% 29.80 in - ESE 8.9 mph - N/A   Clear
7:30 PM 53.6 °F - 24.8 °F 33% 29.80 in - East 11.2 mph - N/A   Clear
8:00 PM 52 °F - 20 °F 17% 29.78 in 6 mi ESE 6.7 mph - -   Scattered Clouds
8:00 PM 53.6 °F - 26.6 °F 35% 29.80 in - ESE 8.9 mph - N/A   Clear
8:30 PM 51.8 °F - 26.6 °F 38% 29.83 in - ESE 11.2 mph - N/A   Clear
9:00 PM 50 °F - 22 °F 21% 29.81 in 6 mi ESE 8.9 mph - -   Scattered Clouds
9:00 PM 51.8 °F - 23.0 °F 33% 29.83 in - SE 11.2 mph - N/A   Clear
9:30 PM 50.0 °F - 23.0 °F 35% 29.83 in - ESE 11.2 mph - N/A   Clear
10:00 PM 48 °F - 21 °F 21% 29.83 in 6 mi SE 8.9 mph - -   Clear
10:00 PM 48.2 °F - 24.8 °F 40% 29.86 in - ESE 11.2 mph - N/A   Clear
10:30 PM 46.4 °F 42.0 °F 26.6 °F 46% 29.86 in - East 8.9 mph - N/A   Clear
11:00 PM 45 °F - 21 °F 26% 29.84 in 6 mi East 6.7 mph - -   Clear
11:00 PM 46.4 °F 42.0 °F 26.6 °F 46% 29.86 in - East 8.9 mph - N/A   Clear